| time (UTC) | temp F | wind direction | speed MPH | gust MPH | rain 1hr in | rain 24hr in | rain mn in | humidity % | barometer mb |
| 20260507053111 | 50 | 1 | 0.0 | 1.0 | 0.00 | 0.00 | 0.00 | 76 | 1019.0 |
| 20260507051632 | 50 | 1 | 0.0 | 0.0 | 0.00 | 0.00 | 0.00 | 74 | 1018.9 |
| 20260507044506 | 50 | 1 | 0.0 | 3.0 | 0.00 | 0.00 | 0.00 | 74 | 1018.9 |
| 20260507043014 | 51 | 1 | 0.0 | 0.0 | 0.00 | 0.00 | 0.00 | 73 | 1018.8 |
| 20260507041629 | 51 | 1 | 0.0 | 0.0 | 0.00 | 0.00 | 0.00 | 71 | 1018.8 |
| 20260507040112 | 52 | 1 | 0.0 | 0.0 | 0.00 | 0.00 | 0.00 | 69 | 1018.7 |
| 20260507034506 | 52 | 1 | 0.0 | 0.0 | 0.00 | 0.00 | 0.00 | 68 | 1018.8 |
| 20260507033032 | 53 | 1 | 0.0 | 0.0 | 0.00 | 0.00 | 0.00 | 66 | 1018.4 |
| 20260507031627 | 54 | 1 | 0.0 | 0.0 | 0.00 | 0.00 | 0.00 | 64 | 1018.4 |
| 20260507030112 | 55 | 1 | 0.0 | 2.0 | 0.00 | 0.00 | 0.00 | 62 | 1018.4 |
| 20260507024503 | 55 | 1 | 0.0 | 4.0 | 0.00 | 0.00 | 0.00 | 61 | 1018.1 |
| 20260507023112 | 56 | 1 | 0.0 | 2.0 | 0.00 | 0.00 | 0.00 | 60 | 1018.1 |
| 20260507021625 | 57 | 1 | 0.0 | 5.0 | 0.00 | 0.00 | 0.00 | 58 | 1017.8 |
| 20260507020055 | 57 | 1 | 2.0 | 5.0 | 0.00 | 0.00 | 0.00 | 57 | 1017.8 |
| 20260507014606 | 58 | 1 | 2.0 | 8.0 | 0.00 | 0.00 | 0.00 | 55 | 1017.7 |
| 20260507013113 | 59 | 1 | 3.0 | 5.0 | 0.00 | 0.00 | 0.00 | 53 | 1017.4 |
| 20260507011558 | 59 | 1 | 1.0 | 5.0 | 0.00 | 0.00 | 0.00 | 53 | 1017.2 |
| 20260507010056 | 60 | 1 | 2.0 | 10.0 | 0.00 | 0.00 | 0.00 | 52 | 1017.1 |
| 20260507004625 | 61 | 1 | 1.0 | 11.0 | 0.00 | 0.00 | 0.00 | 51 | 1016.9 |
| 20260507003111 | 61 | 1 | 3.0 | 11.0 | 0.00 | 0.00 | 0.00 | 49 | 1016.7 |
| 20260507001621 | 62 | 1 | 4.0 | 10.0 | 0.00 | 0.00 | 0.00 | 48 | 1016.6 |
| 20260506234629 | 63 | 6 | 3.0 | 11.0 | 0.00 | 0.00 | 0.00 | 48 | 1016.4 |
| 20260506233110 | 63 | 37 | 4.0 | 13.0 | 0.00 | 0.00 | 0.00 | 48 | 1016.4 |
| 20260506231629 | 63 | 17 | 3.0 | 11.0 | 0.00 | 0.00 | 0.00 | 48 | 1016.3 |
| 20260506230059 | 63 | 10 | 1.0 | 10.0 | 0.00 | 0.00 | 0.00 | 48 | 1016.1 |
| 20260506224557 | 63 | 348 | 6.0 | 13.0 | 0.00 | 0.00 | 0.00 | 47 | 1016.0 |
| 20260506223127 | 63 | 10 | 3.0 | 11.0 | 0.00 | 0.00 | 0.00 | 51 | 1015.8 |
| 20260506221544 | 62 | 1 | 5.0 | 13.0 | 0.00 | 0.00 | 0.00 | 50 | 1015.7 |
| 20260506220026 | 62 | 1 | 6.0 | 15.0 | 0.00 | 0.00 | 0.00 | 51 | 1015.7 |
| 20260506214551 | 62 | 41 | 3.0 | 13.0 | 0.00 | 0.00 | 0.00 | 51 | 1015.7 |
| 20260506213021 | 62 | 1 | 4.0 | 14.0 | 0.00 | 0.00 | 0.00 | 50 | 1015.8 |
| 20260506211626 | 63 | 1 | 5.0 | 12.0 | 0.00 | 0.00 | 0.00 | 49 | 1015.7 |
| 20260506210133 | 62 | 6 | 8.0 | 14.0 | 0.00 | 0.00 | 0.00 | 52 | 1015.9 |
| 20260506204559 | 63 | 6 | 3.0 | 19.0 | 0.00 | 0.00 | 0.00 | 51 | 1016.1 |
| 20260506203104 | 63 | 55 | 3.0 | 12.0 | 0.00 | 0.00 | 0.00 | 51 | 1016.5 |
| 20260506201600 | 62 | 1 | 1.0 | 12.0 | 0.00 | 0.00 | 0.00 | 54 | 1016.6 |
| 20260506200125 | 62 | 1 | 6.0 | 12.0 | 0.00 | 0.00 | 0.00 | 54 | 1016.8 |
| 20260506194632 | 61 | 1 | 5.0 | 11.0 | 0.00 | 0.00 | 0.00 | 55 | 1016.6 |
| 20260506193057 | 61 | 1 | 6.0 | 11.0 | 0.00 | 0.00 | 0.00 | 55 | 1016.8 |
| 20260506191513 | 61 | 12 | 5.0 | 13.0 | 0.00 | 0.00 | 0.00 | 56 | 1016.9 |
| 20260506190057 | 60 | 1 | 2.0 | 11.0 | 0.00 | 0.00 | 0.00 | 57 | 1017.3 |
| 20260506184624 | 60 | 1 | 3.0 | 9.0 | 0.00 | 0.00 | 0.00 | 56 | 1017.4 |
| 20260506183113 | 60 | 1 | 3.0 | 11.0 | 0.00 | 0.00 | 0.00 | 57 | 1017.6 |
| 20260506181506 | 60 | 1 | 3.0 | 14.0 | 0.00 | 0.00 | 0.00 | 57 | 1017.9 |
| 20260506180022 | 60 | 1 | 3.0 | 11.0 | 0.00 | 0.00 | 0.00 | 58 | 1017.7 |
| 20260506174629 | 59 | 51 | 1.0 | 12.0 | 0.00 | 0.00 | 0.00 | 60 | 1017.9 |
| 20260506173127 | 59 | 1 | 7.0 | 14.0 | 0.00 | 0.00 | 0.00 | 59 | 1018.3 |
| 20260506171555 | 59 | 1 | 2.0 | 11.0 | 0.00 | 0.00 | 0.00 | 59 | 1018.7 |
| 20260506170042 | 59 | 1 | 5.0 | 12.0 | 0.00 | 0.00 | 0.00 | 58 | 1019.0 |
| 20260506164509 | 58 | 87 | 2.0 | 9.0 | 0.00 | 0.00 | 0.00 | 60 | 1019.1 |
| 20260506163108 | 57 | 10 | 4.0 | 11.0 | 0.00 | 0.00 | 0.00 | 61 | 1018.8 |
| 20260506161625 | 57 | 351 | 3.0 | 13.0 | 0.00 | 0.00 | 0.00 | 62 | 1018.8 |
| 20260506160110 | 56 | 32 | 5.0 | 11.0 | 0.00 | 0.00 | 0.00 | 63 | 1018.7 |
| 20260506154544 | 56 | 39 | 6.0 | 16.0 | 0.00 | 0.00 | 0.00 | 64 | 1018.3 |
| 20260506153027 | 55 | 47 | 3.0 | 15.0 | 0.00 | 0.00 | 0.00 | 66 | 1018.0 |
| 20260506151502 | 54 | 1 | 5.0 | 16.0 | 0.00 | 0.00 | 0.00 | 65 | 1017.5 |
| 20260506150112 | 53 | 1 | 3.0 | 13.0 | 0.00 | 0.00 | 0.00 | 67 | 1017.2 |
| 20260506144554 | 53 | 1 | 3.0 | 10.0 | 0.00 | 0.00 | 0.00 | 69 | 1017.2 |
| 20260506143100 | 52 | 1 | 3.0 | 18.0 | 0.00 | 0.00 | 0.00 | 71 | 1017.4 |
| 20260506141558 | 51 | 1 | 2.0 | 13.0 | 0.00 | 0.00 | 0.00 | 72 | 1017.2 |
| 20260506140049 | 51 | 1 | 2.0 | 13.0 | 0.00 | 0.00 | 0.00 | 74 | 1017.2 |
| 20260506134607 | 50 | 1 | 6.0 | 16.0 | 0.00 | 0.00 | 0.00 | 74 | 1017.5 |
| 20260506133025 | 50 | 1 | 5.0 | 14.0 | 0.00 | 0.00 | 0.00 | 75 | 1017.5 |
| 20260506131627 | 50 | 1 | 6.0 | 15.0 | 0.00 | 0.00 | 0.00 | 75 | 1017.4 |
| 20260506130107 | 49 | 1 | 5.0 | 15.0 | 0.00 | 0.00 | 0.00 | 79 | 1017.2 |
| 20260506124626 | 49 | 1 | 4.0 | 11.0 | 0.00 | 0.00 | 0.00 | 82 | 1017.1 |
| 20260506123104 | 49 | 1 | 4.0 | 15.0 | 0.00 | 0.00 | 0.00 | 83 | 1016.9 |
| 20260506121629 | 48 | 1 | 7.0 | 15.0 | 0.00 | 0.00 | 0.00 | 84 | 1016.7 |
| 20260506120114 | 48 | 1 | 4.0 | 15.0 | 0.00 | 0.00 | 0.00 | 83 | 1016.5 |
| 20260506114520 | 48 | 1 | 7.0 | 13.0 | 0.00 | 0.00 | 0.00 | 83 | 1016.8 |
| 20260506113015 | 48 | 1 | 5.0 | 19.0 | 0.00 | 0.00 | 0.00 | 83 | 1016.6 |
| 20260506111609 | 48 | 1 | 6.0 | 14.0 | 0.00 | 0.00 | 0.00 | 83 | 1016.6 |
| 20260506110048 | 48 | 1 | 6.0 | 10.0 | 0.00 | 0.00 | 0.00 | 83 | 1016.4 |
| 20260506104509 | 48 | 1 | 4.0 | 10.0 | 0.00 | 0.00 | 0.00 | 83 | 1015.9 |
| 20260506103021 | 48 | 1 | 2.0 | 11.0 | 0.00 | 0.00 | 0.00 | 83 | 1015.7 |
| 20260506101541 | 48 | 1 | 3.0 | 11.0 | 0.00 | 0.00 | 0.00 | 82 | 1015.7 |
| 20260506100028 | 48 | 1 | 4.0 | 8.0 | 0.00 | 0.00 | 0.00 | 82 | 1015.5 |
| 20260506094509 | 48 | 1 | 4.0 | 13.0 | 0.00 | 0.00 | 0.00 | 82 | 1015.3 |
| 20260506093116 | 49 | 1 | 4.0 | 11.0 | 0.00 | 0.00 | 0.00 | 81 | 1015.0 |
| 20260506091503 | 48 | 1 | 5.0 | 12.0 | 0.00 | 0.00 | 0.00 | 82 | 1014.1 |
| 20260506090057 | 48 | 1 | 4.0 | 10.0 | 0.00 | 0.00 | 0.00 | 82 | 1013.7 |
| 20260506084541 | 48 | 1 | 4.0 | 8.0 | 0.00 | 0.00 | 0.00 | 81 | 1013.9 |
| 20260506083022 | 49 | 1 | 3.0 | 6.0 | 0.00 | 0.00 | 0.00 | 81 | 1013.4 |
| 20260506081517 | 49 | 1 | 4.0 | 9.0 | 0.00 | 0.00 | 0.00 | 79 | 1013.1 |
| 20260506080135 | 49 | 1 | 2.0 | 5.0 | 0.00 | 0.00 | 0.00 | 78 | 1013.0 |
| 20260506073109 | 50 | 1 | 4.0 | 15.0 | 0.00 | 0.00 | 0.00 | 74 | 1013.2 |
| 20260506071501 | 50 | 1 | 3.0 | 17.0 | 0.00 | 0.00 | 0.00 | 74 | 1013.1 |
| 20260506070127 | 50 | 1 | 7.0 | 16.0 | 0.00 | 0.00 | 0.00 | 73 | 1012.9 |
| 20260506061559 | 50 | 1 | 3.0 | 14.0 | 0.00 | 0.00 | 0.00 | 73 | 1013.1 |